| time (UTC) | temp F | wind direction | speed MPH | gust MPH | rain 1hr in | rain 24hr in | rain mn in | humidity % | barometer mb |
| 20260506153405 | 74 | 117 | 3.0 | 7.0 | 0.00 | 0.00 | 0.00 | 51 | 1003.8 |
| 20260506152904 | 74 | 98 | 3.0 | 9.0 | 0.00 | 0.00 | 0.00 | 51 | 1004.0 |
| 20260506152404 | 74 | 173 | 3.0 | 6.0 | 0.00 | 0.00 | 0.00 | 52 | 1004.0 |
| 20260506151904 | 74 | 109 | 1.0 | 7.0 | 0.00 | 0.00 | 0.00 | 53 | 1004.0 |
| 20260506150404 | 74 | 135 | 3.0 | 14.0 | 0.00 | 0.00 | 0.00 | 52 | 1004.1 |
| 20260506145404 | 74 | 135 | 5.0 | 13.0 | 0.00 | 0.00 | 0.00 | 50 | 1004.2 |
| 20260506144905 | 74 | 124 | 3.0 | 13.0 | 0.00 | 0.00 | 0.00 | 51 | 1004.3 |
| 20260506144412 | 74 | 130 | 3.0 | 9.0 | 0.00 | 0.00 | 0.00 | 51 | 1004.3 |
| 20260506143904 | 75 | 201 | 6.0 | 15.0 | 0.00 | 0.00 | 0.00 | 51 | 1004.2 |
| 20260506142904 | 74 | 178 | 5.0 | 12.0 | 0.00 | 0.00 | 0.00 | 52 | 1004.4 |
| 20260506142404 | 74 | 175 | 4.0 | 12.0 | 0.00 | 0.00 | 0.00 | 51 | 1004.4 |
| 20260506141904 | 74 | 190 | 6.0 | 12.0 | 0.00 | 0.00 | 0.00 | 52 | 1004.5 |
| 20260506141404 | 74 | 119 | 3.0 | 8.0 | 0.00 | 0.00 | 0.00 | 52 | 1004.3 |
| 20260506140904 | 74 | 146 | 3.0 | 6.0 | 0.00 | 0.00 | 0.00 | 52 | 1004.4 |
| 20260506140404 | 74 | 113 | 4.0 | 12.0 | 0.00 | 0.00 | 0.00 | 52 | 1004.5 |
| 20260506134905 | 75 | 213 | 3.0 | 12.0 | 0.00 | 0.00 | 0.00 | 51 | 1004.7 |
| 20260506134404 | 75 | 139 | 3.0 | 9.0 | 0.00 | 0.00 | 0.00 | 51 | 1004.7 |
| 20260506133404 | 75 | 126 | 3.0 | 8.0 | 0.00 | 0.00 | 0.00 | 51 | 1004.8 |
| 20260506132905 | 76 | 153 | 6.0 | 12.0 | 0.00 | 0.00 | 0.00 | 50 | 1004.9 |
| 20260506132404 | 76 | 180 | 4.0 | 9.0 | 0.00 | 0.00 | 0.00 | 50 | 1004.9 |
| 20260506131904 | 76 | 136 | 6.0 | 9.0 | 0.00 | 0.00 | 0.00 | 51 | 1005.0 |
| 20260506130904 | 75 | 150 | 5.0 | 12.0 | 0.00 | 0.00 | 0.00 | 52 | 1005.0 |
| 20260506130405 | 75 | 184 | 5.0 | 16.0 | 0.00 | 0.00 | 0.00 | 51 | 1005.1 |
| 20260506125905 | 75 | 205 | 6.0 | 16.0 | 0.00 | 0.00 | 0.00 | 51 | 1005.2 |
| 20260506124904 | 75 | 209 | 6.0 | 17.0 | 0.00 | 0.00 | 0.00 | 51 | 1005.2 |
| 20260506124404 | 75 | 187 | 7.0 | 15.0 | 0.00 | 0.00 | 0.00 | 51 | 1005.2 |
| 20260506123904 | 76 | 183 | 5.0 | 15.0 | 0.00 | 0.00 | 0.00 | 51 | 1005.3 |
| 20260506122404 | 75 | 166 | 6.0 | 9.0 | 0.00 | 0.00 | 0.00 | 49 | 1005.3 |
| 20260506121904 | 75 | 178 | 2.0 | 10.0 | 0.00 | 0.00 | 0.00 | 50 | 1005.2 |
| 20260506121404 | 75 | 159 | 6.0 | 14.0 | 0.00 | 0.00 | 0.00 | 50 | 1005.3 |
| 20260506115904 | 75 | 203 | 5.0 | 12.0 | 0.00 | 0.00 | 0.00 | 49 | 1005.1 |
| 20260506115404 | 75 | 197 | 3.0 | 12.0 | 0.00 | 0.00 | 0.00 | 48 | 1005.1 |
| 20260506114904 | 75 | 185 | 7.0 | 12.0 | 0.00 | 0.00 | 0.00 | 50 | 1005.1 |
| 20260506114405 | 74 | 194 | 5.0 | 12.0 | 0.00 | 0.00 | 0.00 | 50 | 1005.1 |
| 20260506113904 | 74 | 220 | 4.0 | 7.0 | 0.00 | 0.00 | 0.00 | 50 | 1005.3 |
| 20260506113405 | 74 | 181 | 4.0 | 12.0 | 0.00 | 0.00 | 0.00 | 49 | 1005.3 |
| 20260506112904 | 74 | 222 | 5.0 | 13.0 | 0.00 | 0.00 | 0.00 | 50 | 1005.5 |
| 20260506112404 | 73 | 186 | 5.0 | 12.0 | 0.00 | 0.00 | 0.00 | 50 | 1005.5 |
| 20260506110904 | 73 | 220 | 4.0 | 10.0 | 0.00 | 0.00 | 0.00 | 52 | 1005.4 |
| 20260506110404 | 73 | 200 | 8.0 | 13.0 | 0.00 | 0.00 | 0.00 | 51 | 1005.5 |
| 20260506105904 | 73 | 218 | 6.0 | 15.0 | 0.00 | 0.00 | 0.00 | 51 | 1005.5 |
| 20260506104904 | 73 | 36 | 3.0 | 8.0 | 0.00 | 0.00 | 0.00 | 51 | 1005.5 |
| 20260506104404 | 73 | 203 | 5.0 | 9.0 | 0.00 | 0.00 | 0.00 | 52 | 1005.5 |
| 20260506103905 | 73 | 124 | 4.0 | 9.0 | 0.00 | 0.00 | 0.00 | 52 | 1005.6 |
| 20260506103404 | 73 | 174 | 4.0 | 9.0 | 0.00 | 0.00 | 0.00 | 52 | 1005.7 |
| 20260506102904 | 73 | 191 | 3.0 | 7.0 | 0.00 | 0.00 | 0.00 | 51 | 1005.7 |
| 20260506102404 | 73 | 135 | 4.0 | 8.0 | 0.00 | 0.00 | 0.00 | 50 | 1005.8 |
| 20260506101404 | 74 | 238 | 4.0 | 10.0 | 0.00 | 0.00 | 0.00 | 52 | 1005.8 |
| 20260506100904 | 73 | 202 | 3.0 | 6.0 | 0.00 | 0.00 | 0.00 | 52 | 1005.8 |
| 20260506100405 | 73 | 124 | 4.0 | 7.0 | 0.00 | 0.00 | 0.00 | 50 | 1005.9 |
| 20260506095904 | 73 | 117 | 3.0 | 10.0 | 0.00 | 0.00 | 0.00 | 51 | 1005.9 |
| 20260506095409 | 73 | 130 | 2.0 | 8.0 | 0.00 | 0.00 | 0.00 | 51 | 1006.0 |
| 20260506094904 | 73 | 116 | 5.0 | 9.0 | 0.00 | 0.00 | 0.00 | 52 | 1006.0 |
| 20260506094404 | 73 | 182 | 3.0 | 13.0 | 0.00 | 0.00 | 0.00 | 53 | 1006.1 |
| 20260506093404 | 72 | 233 | 5.0 | 9.0 | 0.00 | 0.00 | 0.00 | 56 | 1006.0 |
| 20260506092905 | 72 | 189 | 4.0 | 8.0 | 0.00 | 0.00 | 0.00 | 57 | 1006.1 |
| 20260506092404 | 71 | 247 | 3.0 | 5.0 | 0.00 | 0.00 | 0.00 | 59 | 1006.0 |
| 20260506091904 | 71 | 241 | 6.0 | 10.0 | 0.00 | 0.00 | 0.00 | 58 | 1006.1 |
| 20260506091404 | 71 | 192 | 2.0 | 10.0 | 0.00 | 0.00 | 0.00 | 57 | 1006.0 |
| 20260506090904 | 70 | 190 | 4.0 | 8.0 | 0.00 | 0.00 | 0.00 | 59 | 1006.2 |
| 20260506090405 | 70 | 143 | 2.0 | 8.0 | 0.00 | 0.00 | 0.00 | 57 | 1006.1 |
| 20260506085904 | 70 | 206 | 5.0 | 10.0 | 0.00 | 0.00 | 0.00 | 59 | 1006.2 |
| 20260506084904 | 70 | 178 | 6.0 | 13.0 | 0.00 | 0.00 | 0.00 | 61 | 1006.1 |
| 20260506084404 | 69 | 159 | 3.0 | 7.0 | 0.00 | 0.00 | 0.00 | 60 | 1006.1 |
| 20260506083904 | 69 | 187 | 5.0 | 12.0 | 0.00 | 0.00 | 0.00 | 61 | 1006.1 |
| 20260506083405 | 69 | 213 | 3.0 | 13.0 | 0.00 | 0.00 | 0.00 | 62 | 1006.1 |
| 20260506082905 | 68 | 230 | 2.0 | 10.0 | 0.00 | 0.00 | 0.00 | 62 | 1006.1 |
| 20260506082404 | 68 | 206 | 8.0 | 12.0 | 0.00 | 0.00 | 0.00 | 63 | 1006.2 |
| 20260506081904 | 68 | 225 | 3.0 | 9.0 | 0.00 | 0.00 | 0.00 | 65 | 1006.0 |
| 20260506081405 | 68 | 211 | 6.0 | 12.0 | 0.00 | 0.00 | 0.00 | 64 | 1006.0 |
| 20260506080904 | 68 | 209 | 5.0 | 9.0 | 0.00 | 0.00 | 0.00 | 64 | 1006.0 |
| 20260506080405 | 68 | 176 | 6.0 | 12.0 | 0.00 | 0.00 | 0.00 | 64 | 1006.1 |
| 20260506073405 | 66 | 197 | 5.0 | 9.0 | 0.00 | 0.00 | 0.00 | 68 | 1006.1 |
| 20260506072904 | 66 | 181 | 3.0 | 8.0 | 0.00 | 0.00 | 0.00 | 68 | 1006.2 |
| 20260506072404 | 65 | 171 | 7.0 | 13.0 | 0.00 | 0.00 | 0.00 | 68 | 1006.2 |
| 20260506071904 | 65 | 205 | 4.0 | 8.0 | 0.00 | 0.00 | 0.00 | 69 | 1006.1 |
| 20260506071404 | 65 | 186 | 2.0 | 7.0 | 0.00 | 0.00 | 0.00 | 69 | 1006.1 |
| 20260506070904 | 64 | 205 | 2.0 | 7.0 | 0.00 | 0.00 | 0.00 | 69 | 1006.1 |
| 20260506070404 | 64 | 179 | 3.0 | 7.0 | 0.00 | 0.00 | 0.00 | 69 | 1006.1 |
| 20260506062404 | 61 | 233 | 2.0 | 6.0 | 0.00 | 0.00 | 0.00 | 74 | 1006.0 |
| 20260506061904 | 61 | 160 | 2.0 | 7.0 | 0.00 | 0.00 | 0.00 | 75 | 1006.1 |
| 20260506061404 | 60 | 214 | 4.0 | 9.0 | 0.00 | 0.00 | 0.00 | 75 | 1006.1 |
| 20260506060904 | 60 | 181 | 3.0 | 7.0 | 0.00 | 0.00 | 0.00 | 76 | 1006.1 |
| 20260506060404 | 60 | 191 | 3.0 | 6.0 | 0.00 | 0.00 | 0.00 | 76 | 1006.0 |
| 20260506051404 | 56 | 53 | 2.0 | 3.0 | 0.00 | 0.00 | 0.00 | 82 | 1005.7 |
| 20260506050904 | 56 | 56 | 1.0 | 3.0 | 0.00 | 0.00 | 0.00 | 83 | 1005.7 |
| 20260506044404 | 55 | 67 | 1.0 | 3.0 | 0.00 | 0.00 | 0.00 | 83 | 1005.6 |
| 20260506043905 | 54 | 67 | 1.0 | 2.0 | 0.00 | 0.00 | 0.00 | 83 | 1005.5 |
| 20260506043404 | 54 | 68 | 0.0 | 2.0 | 0.00 | 0.00 | 0.00 | 83 | 1005.4 |
| 20260506042904 | 54 | 68 | 1.0 | 3.0 | 0.00 | 0.00 | 0.00 | 83 | 1005.4 |
| 20260506042404 | 54 | 68 | 2.0 | 3.0 | 0.00 | 0.00 | 0.00 | 82 | 1005.3 |
| 20260506041404 | 54 | 68 | 1.0 | 2.0 | 0.00 | 0.00 | 0.00 | 81 | 1005.4 |
| 20260506040904 | 54 | 68 | 0.0 | 2.0 | 0.00 | 0.00 | 0.00 | 81 | 1005.3 |
| 20260506035904 | 55 | 68 | 2.0 | 3.0 | 0.00 | 0.00 | 0.00 | 80 | 1005.3 |
| 20260506034905 | 55 | 68 | 1.0 | 3.0 | 0.00 | 0.00 | 0.00 | 79 | 1005.2 |
| 20260506034404 | 55 | 68 | 0.0 | 2.0 | 0.00 | 0.00 | 0.00 | 78 | 1005.1 |
| 20260506033904 | 55 | 68 | 1.0 | 3.0 | 0.00 | 0.00 | 0.00 | 78 | 1005.2 |
| 20260506033404 | 56 | 68 | 0.0 | 0.0 | 0.00 | 0.00 | 0.00 | 77 | 1005.1 |
| 20260506032904 | 56 | 68 | 0.0 | 0.0 | 0.00 | 0.00 | 0.00 | 77 | 1005.1 |
| 20260506032405 | 56 | 68 | 0.0 | 0.0 | 0.00 | 0.00 | 0.00 | 77 | 1005.0 |
| 20260506031405 | 56 | 68 | 0.0 | 3.0 | 0.00 | 0.00 | 0.00 | 77 | 1004.9 |
| 20260506030904 | 56 | 68 | 0.0 | 3.0 | 0.00 | 0.00 | 0.00 | 77 | 1004.8 |
| 20260506025904 | 57 | 67 | 1.0 | 2.0 | 0.00 | 0.00 | 0.00 | 76 | 1004.7 |
| 20260506025404 | 57 | 67 | 1.0 | 3.0 | 0.00 | 0.00 | 0.00 | 75 | 1004.7 |
| 20260506024905 | 57 | 67 | 1.0 | 2.0 | 0.00 | 0.00 | 0.00 | 75 | 1004.8 |
| 20260506023904 | 57 | 80 | 3.0 | 7.0 | 0.00 | 0.00 | 0.00 | 74 | 1004.7 |
| 20260506023404 | 58 | 61 | 1.0 | 3.0 | 0.00 | 0.00 | 0.00 | 74 | 1004.7 |
| 20260506022905 | 58 | 61 | 0.0 | 3.0 | 0.00 | 0.00 | 0.00 | 74 | 1004.7 |
| 20260506021904 | 58 | 77 | 1.0 | 3.0 | 0.00 | 0.00 | 0.00 | 73 | 1004.8 |
| 20260506021404 | 58 | 77 | 0.0 | 2.0 | 0.00 | 0.00 | 0.00 | 73 | 1004.9 |
| 20260506020904 | 58 | 77 | 1.0 | 5.0 | 0.00 | 0.00 | 0.00 | 73 | 1004.8 |
| 20260506020404 | 58 | 104 | 1.0 | 6.0 | 0.00 | 0.00 | 0.00 | 73 | 1004.7 |
| 20260506015904 | 58 | 97 | 1.0 | 3.0 | 0.00 | 0.00 | 0.00 | 72 | 1004.6 |
| 20260506015404 | 59 | 117 | 1.0 | 5.0 | 0.00 | 0.00 | 0.00 | 72 | 1004.7 |
| 20260506014904 | 59 | 97 | 1.0 | 3.0 | 0.00 | 0.00 | 0.00 | 72 | 1004.6 |
| 20260506013904 | 59 | 103 | 1.0 | 9.0 | 0.00 | 0.00 | 0.00 | 71 | 1004.7 |
| 20260506012905 | 59 | 135 | 2.0 | 5.0 | 0.00 | 0.00 | 0.00 | 71 | 1004.8 |
| 20260506012404 | 59 | 142 | 0.0 | 1.0 | 0.00 | 0.00 | 0.00 | 71 | 1004.7 |
| 20260506011904 | 59 | 141 | 2.0 | 8.0 | 0.00 | 0.00 | 0.00 | 70 | 1004.6 |
| 20260506010904 | 60 | 155 | 3.0 | 9.0 | 0.00 | 0.00 | 0.00 | 70 | 1004.4 |
| 20260506010404 | 60 | 98 | 3.0 | 12.0 | 0.00 | 0.00 | 0.00 | 70 | 1004.3 |
| 20260506005905 | 60 | 111 | 1.0 | 6.0 | 0.00 | 0.00 | 0.00 | 69 | 1004.3 |
| 20260506005404 | 60 | 117 | 1.0 | 5.0 | 0.00 | 0.00 | 0.00 | 69 | 1004.2 |
| 20260506004904 | 60 | 131 | 1.0 | 10.0 | 0.00 | 0.00 | 0.00 | 69 | 1004.2 |
| 20260506004404 | 60 | 122 | 1.0 | 5.0 | 0.00 | 0.00 | 0.00 | 68 | 1004.3 |
| 20260506003904 | 60 | 88 | 2.0 | 7.0 | 0.00 | 0.00 | 0.00 | 68 | 1004.3 |
| 20260506003404 | 61 | 124 | 1.0 | 6.0 | 0.00 | 0.00 | 0.00 | 68 | 1004.3 |
| 20260506002905 | 61 | 124 | 1.0 | 6.0 | 0.00 | 0.00 | 0.00 | 68 | 1004.3 |
| 20260506002404 | 61 | 96 | 3.0 | 8.0 | 0.00 | 0.00 | 0.00 | 68 | 1004.2 |
| 20260506001905 | 61 | 80 | 1.0 | 3.0 | 0.00 | 0.00 | 0.00 | 67 | 1004.2 |
| 20260506001404 | 61 | 112 | 2.0 | 6.0 | 0.00 | 0.00 | 0.00 | 67 | 1004.2 |
| 20260506000904 | 61 | 289 | 3.0 | 9.0 | 0.00 | 0.00 | 0.00 | 67 | 1004.2 |
| 20260506000404 | 61 | 124 | 2.0 | 5.0 | 0.00 | 0.00 | 0.00 | 67 | 1004.1 |
| 20260505235904 | 61 | 158 | 1.0 | 8.0 | 0.00 | 0.00 | 0.00 | 66 | 1004.1 |
| 20260505235404 | 61 | 139 | 4.0 | 7.0 | 0.00 | 0.00 | 0.00 | 66 | 1004.2 |
| 20260505234412 | 61 | 162 | 2.0 | 3.0 | 0.00 | 0.00 | 0.00 | 66 | 1004.1 |
| 20260505233904 | 61 | 119 | 2.0 | 7.0 | 0.00 | 0.00 | 0.00 | 65 | 1004.1 |
| 20260505233404 | 61 | 62 | 2.0 | 5.0 | 0.00 | 0.00 | 0.00 | 65 | 1004.0 |
| 20260505232912 | 62 | 49 | 1.0 | 3.0 | 0.00 | 0.00 | 0.00 | 64 | 1004.1 |
| 20260505231905 | 62 | 150 | 2.0 | 23.0 | 0.00 | 0.00 | 0.00 | 64 | 1004.2 |
| 20260505231404 | 62 | 139 | 2.0 | 6.0 | 0.00 | 0.00 | 0.00 | 64 | 1004.3 |
| 20260505230905 | 62 | 121 | 2.0 | 5.0 | 0.00 | 0.00 | 0.00 | 63 | 1004.3 |
| 20260505230404 | 62 | 95 | 1.0 | 3.0 | 0.00 | 0.00 | 0.00 | 63 | 1004.3 |
| 20260505225904 | 62 | 83 | 1.0 | 3.0 | 0.00 | 0.00 | 0.00 | 63 | 1004.3 |
| 20260505225404 | 62 | 117 | 2.0 | 13.0 | 0.00 | 0.00 | 0.00 | 63 | 1004.3 |
| 20260505224905 | 62 | 121 | 2.0 | 6.0 | 0.00 | 0.00 | 0.00 | 63 | 1004.3 |
| 20260505224404 | 62 | 78 | 3.0 | 12.0 | 0.00 | 0.00 | 0.00 | 63 | 1004.1 |
| 20260505223904 | 63 | 64 | 2.0 | 6.0 | 0.00 | 0.00 | 0.00 | 62 | 1004.2 |
| 20260505222904 | 63 | 131 | 3.0 | 7.0 | 0.00 | 0.00 | 0.00 | 62 | 1004.4 |
| 20260505221904 | 63 | 139 | 3.0 | 12.0 | 0.00 | 0.00 | 0.00 | 61 | 1004.4 |
| 20260505221404 | 63 | 37 | 3.0 | 8.0 | 0.00 | 0.00 | 0.00 | 61 | 1004.4 |
| 20260505220904 | 63 | 82 | 1.0 | 6.0 | 0.00 | 0.00 | 0.00 | 61 | 1004.5 |
| 20260505215905 | 63 | 146 | 3.0 | 9.0 | 0.00 | 0.00 | 0.00 | 61 | 1004.5 |
| 20260505215404 | 63 | 112 | 3.0 | 10.0 | 0.00 | 0.00 | 0.00 | 60 | 1004.5 |
| 20260505214904 | 64 | 66 | 2.0 | 10.0 | 0.00 | 0.00 | 0.00 | 60 | 1004.5 |
| 20260505214404 | 64 | 41 | 3.0 | 8.0 | 0.00 | 0.00 | 0.00 | 59 | 1004.5 |
| 20260505213905 | 64 | 45 | 0.0 | 3.0 | 0.00 | 0.00 | 0.00 | 59 | 1004.5 |
| 20260505213405 | 64 | 63 | 3.0 | 8.0 | 0.00 | 0.00 | 0.00 | 59 | 1004.5 |
| 20260505212904 | 64 | 128 | 2.0 | 6.0 | 0.00 | 0.00 | 0.00 | 59 | 1004.5 |
| 20260505212404 | 64 | 118 | 1.0 | 7.0 | 0.00 | 0.00 | 0.00 | 58 | 1004.5 |
| 20260505211904 | 64 | 142 | 2.0 | 7.0 | 0.00 | 0.00 | 0.00 | 58 | 1004.6 |
| 20260505211404 | 64 | 132 | 3.0 | 12.0 | 0.00 | 0.00 | 0.00 | 58 | 1004.6 |
| 20260505210904 | 64 | 127 | 4.0 | 9.0 | 0.00 | 0.00 | 0.00 | 57 | 1004.6 |
| 20260505205905 | 65 | 143 | 3.0 | 7.0 | 0.00 | 0.00 | 0.00 | 56 | 1004.7 |
| 20260505205404 | 65 | 114 | 2.0 | 8.0 | 0.00 | 0.00 | 0.00 | 56 | 1004.7 |
| 20260505204904 | 65 | 95 | 1.0 | 6.0 | 0.00 | 0.00 | 0.00 | 55 | 1004.7 |
| 20260505204404 | 65 | 107 | 3.0 | 8.0 | 0.00 | 0.00 | 0.00 | 54 | 1004.9 |
| 20260505203904 | 65 | 48 | 2.0 | 6.0 | 0.00 | 0.00 | 0.00 | 54 | 1004.9 |
| 20260505203404 | 65 | 76 | 2.0 | 6.0 | 0.00 | 0.00 | 0.00 | 53 | 1005.0 |
| 20260505202904 | 66 | 144 | 1.0 | 5.0 | 0.00 | 0.00 | 0.00 | 53 | 1004.9 |
| 20260505202404 | 66 | 80 | 1.0 | 3.0 | 0.00 | 0.00 | 0.00 | 52 | 1004.8 |
| 20260505201404 | 66 | 117 | 2.0 | 6.0 | 0.00 | 0.00 | 0.00 | 52 | 1004.9 |
| 20260505200904 | 66 | 145 | 3.0 | 7.0 | 0.00 | 0.00 | 0.00 | 51 | 1004.8 |
| 20260505200404 | 66 | 157 | 4.0 | 14.0 | 0.00 | 0.00 | 0.00 | 51 | 1004.8 |
| 20260505195904 | 66 | 177 | 5.0 | 7.0 | 0.00 | 0.00 | 0.00 | 50 | 1004.7 |
| 20260505195404 | 67 | 160 | 2.0 | 6.0 | 0.00 | 0.00 | 0.00 | 50 | 1004.8 |
| 20260505194904 | 67 | 120 | 2.0 | 12.0 | 0.00 | 0.00 | 0.00 | 49 | 1004.6 |
| 20260505194404 | 67 | 165 | 4.0 | 12.0 | 0.00 | 0.00 | 0.00 | 49 | 1004.7 |
| 20260505193404 | 67 | 148 | 3.0 | 6.0 | 0.00 | 0.00 | 0.00 | 48 | 1004.7 |
| 20260505192904 | 68 | 151 | 4.0 | 12.0 | 0.00 | 0.00 | 0.00 | 48 | 1004.7 |
| 20260505192404 | 68 | 125 | 2.0 | 7.0 | 0.00 | 0.00 | 0.00 | 48 | 1004.6 |
| 20260505191904 | 68 | 62 | 4.0 | 8.0 | 0.00 | 0.00 | 0.00 | 48 | 1004.8 |
| 20260505191404 | 68 | 154 | 2.0 | 12.0 | 0.00 | 0.00 | 0.00 | 47 | 1004.8 |
| 20260505190904 | 68 | 145 | 5.0 | 9.0 | 0.00 | 0.00 | 0.00 | 47 | 1004.8 |
| 20260505190405 | 69 | 94 | 0.0 | 7.0 | 0.00 | 0.00 | 0.00 | 47 | 1004.7 |
| 20260505185404 | 69 | 170 | 5.0 | 17.0 | 0.00 | 0.00 | 0.00 | 47 | 1004.8 |
| 20260505184404 | 70 | 158 | 2.0 | 8.0 | 0.00 | 0.00 | 0.00 | 47 | 1004.7 |
| 20260505183908 | 70 | 66 | 2.0 | 6.0 | 0.00 | 0.00 | 0.00 | 48 | 1004.6 |
| 20260505183404 | 70 | 111 | 0.0 | 3.0 | 0.00 | 0.00 | 0.00 | 47 | 1004.7 |
| 20260505182904 | 70 | 76 | 0.0 | 3.0 | 0.00 | 0.00 | 0.00 | 47 | 1004.6 |
| 20260505182404 | 71 | 151 | 0.0 | 3.0 | 0.00 | 0.00 | 0.00 | 46 | 1004.6 |
| 20260505181904 | 71 | 107 | 1.0 | 7.0 | 0.00 | 0.00 | 0.00 | 46 | 1004.5 |
| 20260505181404 | 71 | 164 | 5.0 | 12.0 | 0.00 | 0.00 | 0.00 | 46 | 1004.4 |
| 20260505180904 | 71 | 176 | 5.0 | 12.0 | 0.00 | 0.00 | 0.00 | 45 | 1004.4 |
| 20260505180404 | 72 | 24 | 2.0 | 12.0 | 0.00 | 0.00 | 0.00 | 45 | 1004.3 |
| 20260505175904 | 72 | 165 | 2.0 | 9.0 | 0.00 | 0.00 | 0.00 | 45 | 1004.4 |
| 20260505175404 | 72 | 146 | 2.0 | 9.0 | 0.00 | 0.00 | 0.00 | 44 | 1004.3 |
| 20260505174905 | 72 | 167 | 6.0 | 15.0 | 0.00 | 0.00 | 0.00 | 44 | 1004.3 |
| 20260505174404 | 73 | 143 | 3.0 | 8.0 | 0.00 | 0.00 | 0.00 | 44 | 1004.2 |
| 20260505173904 | 73 | 175 | 5.0 | 13.0 | 0.00 | 0.00 | 0.00 | 43 | 1004.2 |
| 20260505173404 | 73 | 167 | 4.0 | 10.0 | 0.00 | 0.00 | 0.00 | 42 | 1004.2 |
| 20260505172904 | 74 | 189 | 6.0 | 12.0 | 0.00 | 0.00 | 0.00 | 42 | 1004.2 |
| 20260505171404 | 75 | 173 | 2.0 | 7.0 | 0.00 | 0.00 | 0.00 | 43 | 1004.1 |
| 20260505170904 | 75 | 171 | 5.0 | 14.0 | 0.00 | 0.00 | 0.00 | 42 | 1004.1 |
| 20260505170404 | 75 | 194 | 6.0 | 16.0 | 0.00 | 0.00 | 0.00 | 42 | 1004.1 |
| 20260505165904 | 75 | 165 | 5.0 | 12.0 | 0.00 | 0.00 | 0.00 | 41 | 1004.2 |
| 20260505165404 | 76 | 183 | 8.0 | 14.0 | 0.00 | 0.00 | 0.00 | 41 | 1004.2 |
| 20260505164904 | 76 | 182 | 3.0 | 13.0 | 0.00 | 0.00 | 0.00 | 40 | 1004.0 |
| 20260505164404 | 76 | 178 | 3.0 | 12.0 | 0.00 | 0.00 | 0.00 | 40 | 1003.9 |
| 20260505163904 | 76 | 152 | 5.0 | 9.0 | 0.00 | 0.00 | 0.00 | 39 | 1003.9 |
| 20260505163404 | 76 | 191 | 5.0 | 15.0 | 0.00 | 0.00 | 0.00 | 39 | 1003.9 |
| 20260505162905 | 77 | 175 | 5.0 | 9.0 | 0.00 | 0.00 | 0.00 | 39 | 1004.0 |
| 20260505162404 | 77 | 213 | 7.0 | 14.0 | 0.00 | 0.00 | 0.00 | 38 | 1004.0 |
| 20260505161904 | 77 | 176 | 7.0 | 22.0 | 0.00 | 0.00 | 0.00 | 38 | 1004.1 |
| 20260505161405 | 77 | 160 | 4.0 | 12.0 | 0.00 | 0.00 | 0.00 | 38 | 1004.1 |
| 20260505160405 | 78 | 153 | 3.0 | 9.0 | 0.00 | 0.00 | 0.00 | 38 | 1004.1 |